[[{"header":{"parameterUnit":"m.s-1","parameterCategory":2,"la1":30.2991,"la2":30.254,"lo1":-89.0895,"lo2":-89.0444,"dy":0.0017,"dx":0.0017,"nx":28,"ny":28,"refTime":"2025-12-23T09:00:00:Z","depth":"0","parameterNumber":2,"parameterNumberName":"U-component_of_CURRENTS"},"data":[0,0,0,0,0,0,0,0,0,0,0,0,0,0,0,0,0,0,0,0,0,0,0,0,0,0,0,0,0,0,0,0,0,0,0,0,0,0,0,0,0,0,0,0,0,0,0,0,0,0,0,0,0,0,0,0,0,0,0.3653,0.3653,0,0.3678,0.3678,0.3678,0.3657,0.3656,0.3655,0.3655,0.3618,0.3618,0.3617,0,0,0,0,0,0,0,0,0,0,0,0,0,0.3585,0.3586,0.3653,0.3653,0.3654,0.3678,0.3678,0.3678,0.3657,0.3656,0.3655,0.3654,0.3618,0.3618,0.3617,0,0,0,0,0,0,0,0,0,0,0,0,0,0.361,0.3587,0.3653,0.3648,0.3648,0.3678,0.3678,0.3678,0.3657,0.3656,0.3655,0.3654,0.3618,0.3618,0.3617,0.3633,0,0,0.3615,0.3615,0,0,0,0,0,0,0,0,0.3609,0.3612,0.3648,0.3649,0.3649,0.3666,0.3641,0.3661,0.3657,0.3651,0.3655,0.3654,0.3631,0.3629,0.3633,0.3631,0.3629,0.3615,0.3615,0.3615,0.3615,0,0,0,0,0,0,0,0.3607,0.3611,0.366,0.3649,0.3649,0.3645,0.3647,0.3645,0.3642,0.3651,0.365,0.3658,0.363,0.3633,0.3632,0.3629,0.3615,0.3615,0.3614,0.3614,0.3697,0.3699,0,0,0,0,0,0,0.3611,0.361,0.3659,0.3661,0.3629,0.3647,0.3649,0.3659,0.3644,0.3642,0.3659,0.3657,0.3635,0.3632,0.363,0.3692,0.3615,0.3614,0.3614,0.3694,0.3697,0.37,0,0,0,0,0,0,0.361,0.3615,0.3658,0.3638,0.3643,0.365,0.366,0.366,0.3669,0.3651,0.3647,0.3669,0.3634,0.3631,0.3651,0.3689,0.3614,0.3613,0.3691,0.3695,0.3699,0.3788,0,0,0,0,0,0,0.3608,0.3615,0.3622,0.3638,0.3645,0.369,0.3661,0.3661,0.3676,0.3674,0.3659,0.3654,0.3633,0.3652,0.365,0.3687,0.3613,0.3688,0.3693,0.3697,0.3782,0.3794,0.3805,0,0,0,0,0,0.3605,0.362,0.3622,0.3628,0.3655,0.3691,0.3694,0.3693,0.3678,0.3695,0.3689,0.3654,0.3681,0.3654,0.3651,0.3688,0.3686,0.3691,0.3697,0.3776,0.3792,0.3804,0,0,0,0,0,0,0.3588,0.362,0.3622,0.3644,0.3673,0.3689,0.3704,0.3703,0.3712,0.3707,0.3681,0.3678,0.3713,0.3693,0.3663,0.3729,0.368,0.3686,0.3742,0.3756,0.3767,0.3771,0.3612,0,0,0,0,0,0.3591,0.3612,0.3644,0.3661,0.3681,0.3695,0.3708,0.3711,0.3723,0.3725,0.3717,0.3717,0.3736,0.3738,0.3745,0.3774,0.3779,0.3801,0.3812,0.3822,0.3827,0.3887,0.3905,0.3719,0.3719,0.3718,0,0,0.3586,0.3609,0.3618,0.366,0.368,0.3714,0.37,0.3731,0.3756,0.372,0.375,0.3756,0.3755,0.3795,0.3809,0.378,0.388,0.3829,0.3837,0.3837,0.3895,0.3913,0.3929,0.3722,0.3722,0.3721,0,0,0.3598,0.3616,0.3643,0.3674,0.3717,0.3731,0.3745,0.3775,0.3789,0.3823,0.3815,0.3849,0.3856,0.3877,0.3885,0.3967,0.3943,0.3969,0.4025,0.4084,0.41,0.4113,0.4148,0.4164,0.3971,0.3971,0.3971,0,0.3591,0.3628,0.3656,0.3697,0.3722,0.3743,0.378,0.3806,0.3835,0.3862,0.3842,0.3905,0.39,0.3968,0.3998,0.3992,0.4013,0.3968,0.4099,0.4113,0.4125,0.4157,0.4173,0.3976,0.3975,0.3975,0.3974,0,0.3626,0.3659,0.3683,0.3738,0.3772,0.3808,0.3853,0.3886,0.3901,0.3929,0.4,0.4012,0.4048,0.4064,0.4051,0.4147,0.4129,0.4109,0.406,0.4149,0.4177,0.4193,0.3983,0.3981,0.398,0.3978,0,0,0.3591,0.3689,0.369,0.372,0.3795,0.3817,0.3887,0.3953,0.3996,0.4039,0.4105,0.4156,0.4169,0.4181,0.4187,0.4238,0.4344,0.4214,0.4214,0.4241,0.4468,0.4417,0.4428,0.435,0.4353,0.4356,0.4454,0,0.3607,0.3672,0.3725,0.3778,0.3816,0.3873,0.3927,0.399,0.4049,0.412,0.4174,0.4233,0.4214,0.424,0.4296,0.4341,0.4388,0.4318,0.4383,0.4384,0.4323,0.4446,0.4324,0.4397,0.4468,0.4471,0.4473,0,0.3612,0.3659,0.3714,0.3795,0.3817,0.3849,0.3938,0.3997,0.4118,0.4174,0.4265,0.4306,0.4409,0.4365,0.4494,0.4453,0.4467,0.4488,0.4492,0.4421,0.4363,0.432,0.4422,0.4332,0.4496,0.4494,0.4493,0,0.3544,0.3639,0.3674,0.3703,0.3804,0.3836,0.3887,0.4003,0.4079,0.4217,0.4286,0.4406,0.447,0.4534,0.4587,0.4552,0.4713,0.4664,0.4628,0.4623,0.4518,0.4499,0.4532,0.4741,0.4741,0.4741,0.4741,0,0.3525,0.3552,0.3638,0.3654,0.3705,0.3783,0.3863,0.3943,0.4085,0.4183,0.4299,0.4405,0.4517,0.4618,0.4641,0.4702,0.476,0.4667,0.4662,0.4546,0.4529,0.4441,0.4383,0.4745,0.4744,0.4743,0.4742,0,0.3451,0.3508,0.3553,0.3643,0.3676,0.3702,0.385,0.3907,0.4048,0.4185,0.4235,0.4441,0.4581,0.4669,0.479,0.4766,0.4701,0.4812,0.466,0.4635,0.4487,0.4438,0.4294,0.4153,0.4796,0.4795,0.4795,0,0.3426,0.3438,0.3522,0.3547,0.3589,0.3662,0.3712,0.3869,0.3949,0.4203,0.4252,0.4456,0.4585,0.4761,0.4789,0.484,0.4685,0.471,0.4614,0.4493,0.4436,0.425,0.4127,0.4514,0.4511,0.4509,0.4508,0,0.3385,0.3402,0.3439,0.3494,0.3536,0.3602,0.3689,0.3755,0.3935,0.4067,0.4249,0.4386,0.4582,0.4626,0.4705,0.4713,0.4501,0.4664,0.4593,0.4273,0.402,0.3876,0.4422,0.4488,0.449,0.4492,0.4493,0.4494,0.3352,0.3366,0.341,0.3455,0.3492,0.3529,0.3548,0.3652,0.378,0.3926,0.4134,0.4254,0.4424,0.4551,0.4537,0.444,0.4368,0.4311,0.428,0.4116,0.3915,0.441,0.4434,0.4435,0.4437,0.4438,0.4439,0,0.3343,0.3363,0.3383,0.3418,0.3408,0.3462,0.3518,0.3509,0.3587,0.3753,0.3892,0.4034,0.4127,0.4218,0.4238,0.409,0.3891,0.3975,0.3703,0.3612,0.4127,0.4052,0.3929,0.3929,0.3929,0.3929,0.3929,0.3929,0.3347,0.3361,0.3367,0.3343,0.3342,0.3289,0.3293,0.3289,0.3358,0.3418,0.347,0.3587,0.3852,0.4046,0.3961,0.3857,0.3538,0.3396,0.3339,0.3752,0.378,0.3807,0.3725,0.3536,0.3535,0.269,0.2683,0.2679]},{"header":{"parameterUnit":"m.s-1","parameterCategory":2,"la1":30.2991,"la2":30.254,"lo1":-89.0895,"lo2":-89.0444,"dy":0.0017,"dx":0.0017,"nx":28,"ny":28,"refTime":"2025-12-23T09:00:00:Z","depth":"0","parameterNumber":3,"parameterNumberName":"V-component_of_CURRENTS"},"data":[0,0,0,0,0,0,0,0,0,0,0,0,0,0,0,0,0,0,0,0,0,0,0,0,0,0,0,0,0,0,0,0,0,0,0,0,0,0,0,0,0,0,0,0,0,0,0,0,0,0,0,0,0,0,0,0,0,0,-0.0214,-0.0214,0,-0.0267,-0.0268,-0.0268,-0.0305,-0.0305,-0.0305,-0.0305,-0.0394,-0.0396,-0.0399,0,0,0,0,0,0,0,0,0,0,0,0,0,-0.0188,-0.0188,-0.0214,-0.0214,-0.0215,-0.0267,-0.0268,-0.0269,-0.0305,-0.0305,-0.0305,-0.0305,-0.0393,-0.0396,-0.0399,0,0,0,0,0,0,0,0,0,0,0,0,0,-0.0218,-0.0188,-0.0214,-0.0237,-0.024,-0.0267,-0.0268,-0.0269,-0.0305,-0.0305,-0.0305,-0.0305,-0.0392,-0.0396,-0.0399,-0.0419,0,0,-0.041,-0.0411,0,0,0,0,0,0,0,0,-0.0216,-0.0219,-0.0234,-0.0236,-0.0239,-0.0277,-0.0291,-0.032,-0.0305,-0.0282,-0.0305,-0.0305,-0.0357,-0.0363,-0.0376,-0.0423,-0.0427,-0.041,-0.0412,-0.0414,-0.0415,0,0,0,0,0,0,0,-0.0214,-0.0217,-0.0237,-0.0234,-0.0237,-0.026,-0.0264,-0.0297,-0.0321,-0.0284,-0.0287,-0.0289,-0.0359,-0.0372,-0.0378,-0.0428,-0.041,-0.0413,-0.0415,-0.0417,-0.0505,-0.0505,0,0,0,0,0,0,-0.02,-0.0215,-0.0236,-0.0239,-0.0225,-0.026,-0.0265,-0.0267,-0.032,-0.0327,-0.0289,-0.029,-0.0366,-0.0374,-0.0381,-0.0396,-0.0414,-0.0417,-0.0419,-0.0504,-0.0505,-0.0505,0,0,0,0,0,0,-0.02,-0.0202,-0.0233,-0.0226,-0.0232,-0.026,-0.0262,-0.0268,-0.0276,-0.0322,-0.0331,-0.029,-0.0367,-0.0376,-0.0404,-0.04,-0.0419,-0.0422,-0.0504,-0.0504,-0.0505,-0.0433,0,0,0,0,0,0,-0.0199,-0.0201,-0.0196,-0.0225,-0.0231,-0.0237,-0.0262,-0.0268,-0.0277,-0.0279,-0.0327,-0.0335,-0.0367,-0.0398,-0.0407,-0.0405,-0.0424,-0.0504,-0.0504,-0.0505,-0.0435,-0.0431,-0.0427,0,0,0,0,0,-0.0197,-0.0187,-0.0195,-0.0198,-0.0224,-0.0236,-0.0241,-0.0264,-0.0276,-0.0273,-0.0309,-0.0334,-0.0408,-0.0401,-0.0411,-0.0411,-0.0503,-0.0504,-0.0505,-0.0437,-0.0432,-0.0428,0,0,0,0,0,0,-0.017,-0.019,-0.02,-0.0195,-0.0209,-0.0241,-0.0241,-0.0257,-0.0283,-0.0288,-0.0333,-0.0344,-0.0369,-0.0401,-0.0393,-0.044,-0.0462,-0.0464,-0.0407,-0.0402,-0.0398,-0.0365,-0.0427,0,0,0,0,0,-0.0161,-0.0159,-0.0182,-0.0176,-0.0183,-0.0211,-0.0219,-0.0233,-0.026,-0.0271,-0.0304,-0.0345,-0.0381,-0.0399,-0.0434,-0.0456,-0.0471,-0.0466,-0.0462,-0.0458,-0.0439,-0.0467,-0.0463,-0.0507,-0.0507,-0.0507,0,0,-0.0149,-0.0158,-0.0157,-0.017,-0.0186,-0.0178,-0.0216,-0.0222,-0.0216,-0.0277,-0.0284,-0.0331,-0.0384,-0.0409,-0.0423,-0.0434,-0.0452,-0.0459,-0.0455,-0.0438,-0.0467,-0.0463,-0.0459,-0.0507,-0.0507,-0.0507,0,0,-0.0116,-0.0131,-0.0117,-0.0124,-0.0138,-0.0153,-0.0149,-0.0178,-0.0193,-0.0209,-0.0254,-0.0291,-0.0344,-0.0378,-0.0404,-0.0401,-0.043,-0.0422,-0.0373,-0.0401,-0.0397,-0.0394,-0.0391,-0.0388,-0.042,-0.042,-0.042,0,-0.0098,-0.008,-0.0114,-0.0099,-0.009,-0.0134,-0.0108,-0.0133,-0.0164,-0.0169,-0.02,-0.0274,-0.0326,-0.035,-0.0357,-0.0389,-0.0401,-0.0383,-0.0393,-0.039,-0.0388,-0.0387,-0.0384,-0.0416,-0.0417,-0.0417,-0.0417,0,-0.0049,-0.0037,-0.0029,-0.002,-0.0019,-0.0005,-0.0034,-0.004,-0.0067,-0.0092,-0.0124,-0.02,-0.0237,-0.0274,-0.0317,-0.0331,-0.0342,-0.0382,-0.0396,-0.0379,-0.0379,-0.0378,-0.0411,-0.0413,-0.0414,-0.0415,0,0,0.0006,0.0008,0.0015,0.0039,0.0029,0.0043,0.0045,0.0046,0.0068,-0.0001,0.0017,-0.0081,-0.0124,-0.0156,-0.0224,-0.0263,-0.0267,-0.0312,-0.0315,-0.0293,-0.0303,-0.0308,-0.0308,-0.0311,-0.0311,-0.0311,-0.0304,0,0.0062,0.0115,0.0099,0.0158,0.0186,0.0156,0.0169,0.0157,0.0138,0.0139,0.0041,0.0021,-0.008,-0.0096,-0.0152,-0.0229,-0.0263,-0.0264,-0.0338,-0.0339,-0.0333,-0.0307,-0.0282,-0.0274,-0.0303,-0.0302,-0.0302,0,0.0129,0.0157,0.0223,0.026,0.027,0.0292,0.0332,0.034,0.0311,0.0293,0.0247,0.0176,0.0111,0.0016,-0.0099,-0.0093,-0.0188,-0.0262,-0.0264,-0.029,-0.0342,-0.0302,-0.0271,-0.0474,-0.0301,-0.0301,-0.0301,0,0.0208,0.0252,0.0316,0.0329,0.0353,0.0377,0.039,0.0386,0.0425,0.0396,0.0422,0.0318,0.0294,0.0151,-0.0007,-0.0051,-0.0123,-0.0203,-0.0294,-0.0295,-0.0297,-0.0298,-0.0456,-0.0286,-0.0286,-0.0286,-0.0286,0,0.0286,0.0335,0.0357,0.0393,0.0476,0.0457,0.0543,0.0538,0.0563,0.0651,0.0507,0.0565,0.0324,0.0247,0.0068,-0.008,-0.0062,-0.0264,-0.0292,-0.0271,-0.027,-0.0468,-0.0602,-0.0286,-0.0286,-0.0286,-0.0286,0,0.0355,0.0369,0.0446,0.0489,0.0514,0.0571,0.0653,0.0718,0.0716,0.0832,0.0831,0.0767,0.0678,0.044,0.0244,0.0049,-0.0231,-0.0183,-0.0126,-0.0149,-0.0453,-0.0584,-0.0762,-0.085,-0.0285,-0.0285,-0.0285,0,0.039,0.0438,0.0528,0.0592,0.0613,0.0698,0.0765,0.0793,0.0887,0.0993,0.1069,0.1006,0.103,0.0725,0.0359,0.0055,-0.0183,-0.0156,-0.026,-0.0448,-0.0615,-0.0714,-0.0783,-0.0227,-0.0227,-0.0226,-0.0226,0,0.0463,0.0496,0.0565,0.0697,0.0783,0.0899,0.1003,0.1109,0.1189,0.1315,0.1495,0.1527,0.1227,0.0948,0.0472,0.0227,-0.0305,-0.0159,-0.0377,-0.0594,-0.0689,-0.0793,-0.024,-0.0223,-0.0223,-0.0224,-0.0224,-0.0224,0.0523,0.059,0.0692,0.0818,0.0934,0.1098,0.1224,0.1382,0.1594,0.1833,0.1844,0.1958,0.1461,0.083,0.0457,-0.0249,-0.028,-0.0466,-0.0606,-0.0686,-0.0792,-0.0216,-0.0228,-0.0228,-0.0228,-0.0229,-0.0229,0,0.061,0.069,0.0811,0.0977,0.1128,0.1167,0.1391,0.1554,0.1856,0.2092,0.2285,0.211,0.1517,0.0839,-0.0111,-0.0597,-0.0801,-0.0873,-0.1026,-0.1075,-0.0571,-0.059,-0.0652,-0.0652,-0.0652,-0.0652,-0.0652,-0.0651,0.0663,0.0797,0.0859,0.1118,0.1244,0.1466,0.161,0.1881,0.2094,0.2424,0.2515,0.2525,0.1964,0.0333,-0.0773,-0.1034,-0.1399,-0.1477,-0.165,-0.1335,-0.1308,-0.1283,-0.1333,-0.155,-0.1551,-0.2076,-0.2081,-0.2086]}],[{"header":{"parameterUnit":"m.s-1","parameterCategory":2,"la1":30.2991,"la2":30.254,"lo1":-89.0895,"lo2":-89.0444,"dy":0.0017,"dx":0.0017,"nx":28,"ny":28,"refTime":"2025-12-23T09:00:00:Z","depth":"2","parameterNumber":2,"parameterNumberName":"U-component_of_CURRENTS"},"data":[0,0,0,0,0,0,0,0,0,0,0,0,0,0,0,0,0,0,0,0,0,0,0,0,0,0,0,0,0,0,0,0,0,0,0,0,0,0,0,0,0,0,0,0,0,0,0,0,0,0,0,0,0,0,0,0,0,0,0.2887,0.2888,0,0.2941,0.2942,0.2942,0.2954,0.2954,0.2954,0.2954,0.2975,0.2976,0.2976,0,0,0,0,0,0,0,0,0,0,0,0,0,0.2788,0.279,0.2887,0.2888,0.2889,0.2941,0.2942,0.2942,0.2954,0.2954,0.2954,0.2954,0.2975,0.2976,0.2977,0,0,0,0,0,0,0,0,0,0,0,0,0,0.2832,0.279,0.2887,0.2904,0.2906,0.2941,0.2942,0.2942,0.2954,0.2954,0.2954,0.2954,0.2975,0.2976,0.2977,0.2985,0,0,0.298,0.298,0,0,0,0,0,0,0,0,0.283,0.2836,0.29,0.2903,0.2905,0.2944,0.2915,0.2956,0.2954,0.2932,0.2954,0.2954,0.2964,0.2966,0.2972,0.2986,0.2987,0.298,0.298,0.2981,0.2981,0,0,0,0,0,0,0,0.2827,0.2833,0.2905,0.2901,0.2905,0.2907,0.2913,0.2923,0.2945,0.2934,0.2936,0.2948,0.2965,0.2971,0.2972,0.2987,0.298,0.298,0.2981,0.2981,0.3072,0.3074,0,0,0,0,0,0,0.2828,0.2831,0.2903,0.2907,0.2871,0.2909,0.2916,0.2929,0.2945,0.2949,0.2948,0.2948,0.2969,0.2971,0.2973,0.3035,0.2981,0.2982,0.2982,0.307,0.3072,0.3074,0,0,0,0,0,0,0.2826,0.2834,0.2901,0.2872,0.2882,0.2912,0.2926,0.293,0.2951,0.2957,0.2959,0.2966,0.2969,0.2972,0.3003,0.3034,0.2982,0.2983,0.3068,0.3071,0.3073,0.3126,0,0,0,0,0,0,0.2822,0.2833,0.2845,0.2873,0.2884,0.2934,0.2927,0.2931,0.2959,0.296,0.2973,0.2974,0.2969,0.3002,0.3004,0.3034,0.2984,0.3066,0.3069,0.3072,0.3122,0.313,0.3137,0,0,0,0,0,0.2819,0.2835,0.2845,0.2854,0.2899,0.2935,0.2941,0.2959,0.296,0.2975,0.2989,0.2975,0.3025,0.3004,0.3006,0.3038,0.3064,0.3068,0.3072,0.3119,0.3129,0.3137,0,0,0,0,0,0,0.2796,0.2839,0.285,0.2878,0.2911,0.2939,0.2956,0.2969,0.2992,0.2995,0.2994,0.2997,0.304,0.3033,0.301,0.3076,0.3044,0.3049,0.3079,0.3088,0.3096,0.3105,0.2984,0,0,0,0,0,0.2799,0.2822,0.2863,0.2886,0.2904,0.2933,0.2951,0.2968,0.2992,0.3002,0.3013,0.303,0.3057,0.3067,0.3086,0.3116,0.3129,0.314,0.3148,0.3154,0.3165,0.3216,0.3229,0.3088,0.3088,0.3088,0,0,0.2794,0.2823,0.2835,0.2883,0.2907,0.2942,0.2943,0.2979,0.3011,0.3,0.3043,0.3059,0.3074,0.3114,0.3132,0.3111,0.3204,0.3159,0.3164,0.3172,0.3222,0.3235,0.3247,0.3091,0.309,0.309,0,0,0.2799,0.2827,0.285,0.2883,0.2932,0.2955,0.2971,0.3012,0.3034,0.3077,0.3086,0.3124,0.3151,0.3175,0.3188,0.325,0.3247,0.3256,0.3296,0.3345,0.3357,0.3368,0.3409,0.3423,0.3254,0.3254,0.3254,0,0.2792,0.2829,0.2862,0.2897,0.2927,0.2964,0.2999,0.3031,0.3078,0.3104,0.3098,0.3176,0.3184,0.3247,0.327,0.3268,0.3292,0.3256,0.3355,0.3366,0.3375,0.3415,0.343,0.3257,0.3256,0.3256,0.3256,0,0.2818,0.2851,0.2869,0.2927,0.2965,0.2999,0.3054,0.3094,0.3124,0.3157,0.3229,0.3252,0.3297,0.331,0.3308,0.3388,0.3382,0.3362,0.3328,0.3393,0.3431,0.3445,0.3261,0.326,0.3259,0.3258,0,0,0.2788,0.2869,0.2875,0.2905,0.2983,0.3013,0.308,0.3148,0.3198,0.3246,0.3311,0.3365,0.3384,0.3402,0.3413,0.3454,0.3544,0.344,0.3441,0.3477,0.3657,0.3619,0.363,0.3542,0.3544,0.3547,0.3657,0,0.2796,0.2852,0.29,0.2958,0.2991,0.3056,0.3116,0.3186,0.3245,0.3318,0.3367,0.3433,0.3417,0.3451,0.3493,0.3538,0.3584,0.3516,0.3594,0.3597,0.355,0.3646,0.335,0.3421,0.3671,0.3673,0.3675,0,0.2801,0.2841,0.2891,0.2976,0.2998,0.3043,0.3147,0.3207,0.332,0.3378,0.3455,0.3495,0.3583,0.3552,0.3665,0.3624,0.365,0.3674,0.3678,0.3633,0.3585,0.3397,0.3437,0.3699,0.3697,0.3695,0.3694,0,0.2752,0.2833,0.2869,0.2897,0.3001,0.3041,0.3102,0.3216,0.3288,0.3419,0.3488,0.3585,0.3653,0.3704,0.3759,0.3722,0.3876,0.3824,0.3814,0.3811,0.3571,0.3542,0.3904,0.3904,0.3904,0.3903,0.3903,0,0.2734,0.2762,0.2846,0.2865,0.2924,0.3009,0.3088,0.3178,0.3315,0.3399,0.3507,0.3595,0.3697,0.3786,0.3807,0.3872,0.3918,0.3851,0.385,0.3582,0.3555,0.3795,0.378,0.3908,0.3907,0.3906,0.3905,0,0.2671,0.2724,0.2768,0.2866,0.2898,0.2937,0.3074,0.3133,0.3282,0.34,0.345,0.3639,0.3765,0.3852,0.3962,0.394,0.3996,0.3999,0.3683,0.3643,0.3882,0.3869,0.4001,0.4001,0.4,0.4,0.4,0,0.2642,0.2657,0.2746,0.2768,0.2809,0.2883,0.2935,0.3097,0.3172,0.3407,0.3456,0.3648,0.3751,0.3926,0.3942,0.4001,0.4038,0.3739,0.3614,0.3913,0.3898,0.3886,0.3874,0.3314,0.3308,0.3303,0.33,0,0.2586,0.2615,0.265,0.2699,0.2744,0.2796,0.2887,0.2947,0.3129,0.3248,0.3411,0.3523,0.372,0.3674,0.378,0.3756,0.3706,0.3648,0.4053,0.3344,0.3277,0.3258,0.3267,0.3258,0.3262,0.3265,0.3267,0.3269,0.2537,0.2545,0.2589,0.2621,0.2668,0.2692,0.2696,0.2804,0.2907,0.3044,0.3241,0.3319,0.3419,0.3449,0.3377,0.3325,0.3568,0.3386,0.3395,0.341,0.332,0.3257,0.3217,0.3221,0.3224,0.3227,0.323,0,0.2477,0.2493,0.2512,0.2538,0.2526,0.2592,0.2648,0.2622,0.2671,0.2838,0.2961,0.2821,0.2848,0.2934,0.2809,0.2841,0.2755,0.271,0.2554,0.2601,0.2642,0.2505,0.219,0.2186,0.2182,0.2179,0,0,0.2447,0.243,0.2429,0.2378,0.2394,0.2337,0.2331,0.2326,0.24,0.2417,0.2459,0.2728,0.2868,0.2488,0.2463,0.2296,0.2412,0.2208,0.3054,0.2918,0.2952,0.3062,0.2912,0,0,0,0,0]},{"header":{"parameterUnit":"m.s-1","parameterCategory":2,"la1":30.2991,"la2":30.254,"lo1":-89.0895,"lo2":-89.0444,"dy":0.0017,"dx":0.0017,"nx":28,"ny":28,"refTime":"2025-12-23T09:00:00:Z","depth":"2","parameterNumber":3,"parameterNumberName":"V-component_of_CURRENTS"},"data":[0,0,0,0,0,0,0,0,0,0,0,0,0,0,0,0,0,0,0,0,0,0,0,0,0,0,0,0,0,0,0,0,0,0,0,0,0,0,0,0,0,0,0,0,0,0,0,0,0,0,0,0,0,0,0,0,0,0,0.008,0.0079,0,0.0011,0.001,0.0009,-0.004,-0.0041,-0.0041,-0.0041,-0.0132,-0.0134,-0.0136,0,0,0,0,0,0,0,0,0,0,0,0,0,0.012,0.012,0.008,0.0079,0.0079,0.0011,0.001,0.0009,-0.004,-0.0041,-0.0041,-0.0041,-0.0131,-0.0133,-0.0136,0,0,0,0,0,0,0,0,0,0,0,0,0,0.0081,0.012,0.008,0.0047,0.0043,0.0011,0.001,0.0008,-0.004,-0.0041,-0.0041,-0.0042,-0.013,-0.0133,-0.0136,-0.0146,0,0,-0.0146,-0.0147,0,0,0,0,0,0,0,0,0.0084,0.008,0.0052,0.0049,0.0045,-0.0006,-0.0009,-0.0044,-0.004,-0.001,-0.0041,-0.0042,-0.0091,-0.0097,-0.011,-0.015,-0.0154,-0.0146,-0.0148,-0.015,-0.015,0,0,0,0,0,0,0,0.0086,0.0082,0.0052,0.0052,0.0047,0.0018,0.0012,-0.0016,-0.0048,-0.0012,-0.0016,-0.0022,-0.0093,-0.0107,-0.0112,-0.0156,-0.0146,-0.0149,-0.0151,-0.0152,-0.0209,-0.0208,0,0,0,0,0,0,0.01,0.0085,0.0054,0.005,0.0064,0.0018,0.0011,0.001,-0.0047,-0.0056,-0.0022,-0.0024,-0.0101,-0.0109,-0.0116,-0.0115,-0.0149,-0.0152,-0.0154,-0.0209,-0.0209,-0.0208,0,0,0,0,0,0,0.0101,0.0098,0.0057,0.0066,0.0059,0.0018,0.0017,0.0009,-0.0002,-0.0054,-0.0063,-0.0025,-0.0102,-0.0111,-0.0132,-0.0119,-0.0154,-0.0157,-0.021,-0.0209,-0.0208,-0.0123,0,0,0,0,0,0,0.0103,0.0099,0.0103,0.0067,0.0059,0.0051,0.0017,0.0008,-0.0005,-0.0009,-0.0059,-0.0069,-0.0103,-0.0127,-0.0135,-0.0124,-0.0159,-0.021,-0.0209,-0.0209,-0.0126,-0.012,-0.0114,0,0,0,0,0,0.0104,0.0121,0.0104,0.01,0.0067,0.0052,0.0045,0.0013,-0.0005,-0.0001,-0.0036,-0.0067,-0.0129,-0.0129,-0.0139,-0.0128,-0.021,-0.021,-0.0209,-0.0129,-0.0121,-0.0114,0,0,0,0,0,0,0.0142,0.0116,0.0097,0.0105,0.0083,0.0044,0.0044,0.002,-0.0005,-0.001,-0.006,-0.0071,-0.0086,-0.0119,-0.0118,-0.0144,-0.0175,-0.0176,-0.0112,-0.0104,-0.0098,-0.0078,-0.0162,0,0,0,0,0,0.0152,0.0156,0.0124,0.0129,0.0123,0.0083,0.0073,0.0052,0.0023,0.0011,-0.0025,-0.0063,-0.009,-0.0105,-0.0137,-0.0147,-0.0184,-0.0149,-0.0143,-0.0137,-0.0128,-0.0173,-0.017,-0.0205,-0.0205,-0.0205,0,0,0.0167,0.0153,0.0155,0.0137,0.0116,0.0122,0.0076,0.0069,0.0072,0.0006,0.0,-0.0042,-0.0089,-0.0101,-0.0111,-0.0126,-0.0145,-0.0136,-0.013,-0.0124,-0.0172,-0.0168,-0.0165,-0.0205,-0.0205,-0.0205,0,0,0.0206,0.0189,0.0207,0.0195,0.0174,0.0153,0.0155,0.0121,0.0105,0.0091,0.0046,0.0015,-0.003,-0.0058,-0.0079,-0.0057,-0.0111,-0.0071,-0.0021,-0.0065,-0.0062,-0.006,-0.0096,-0.0098,-0.0067,-0.0067,-0.0067,0,0.0225,0.0243,0.021,0.0225,0.0226,0.0174,0.0198,0.0176,0.0138,0.0132,0.0101,0.0035,-0.0008,-0.002,-0.0016,-0.0042,-0.0075,-0.0043,-0.0056,-0.0055,-0.0054,-0.0092,-0.0095,-0.0063,-0.0063,-0.0064,-0.0064,0,0.0275,0.029,0.0302,0.0305,0.0302,0.0313,0.0283,0.0274,0.0243,0.0215,0.019,0.0125,0.0087,0.0065,0.003,0.0017,-0.001,-0.0042,-0.007,-0.0045,-0.0086,-0.0091,-0.0057,-0.0058,-0.0059,-0.006,0,0,0.0319,0.0336,0.034,0.0362,0.0347,0.0355,0.0362,0.0356,0.0368,0.0309,0.0314,0.0248,0.0202,0.0176,0.0121,0.0079,0.005,0.0026,0.0022,-0.0001,-0.0043,-0.0065,-0.0073,0.0013,0.0013,0.0013,-0.0071,0,0.0369,0.0425,0.0416,0.0469,0.0498,0.0463,0.0475,0.0459,0.0434,0.0423,0.0344,0.0324,0.0248,0.0232,0.0177,0.0085,0.004,0.0076,-0.0072,-0.0076,-0.0092,-0.0078,-0.0053,-0.0126,-0.0076,-0.0077,-0.0078,0,0.0422,0.0456,0.052,0.056,0.0569,0.0586,0.0605,0.0612,0.0576,0.0557,0.0514,0.0448,0.0383,0.031,0.0164,0.019,0.0084,0.0003,-0.0003,-0.0056,-0.0107,-0.0146,-0.0137,-0.0086,-0.0086,-0.0085,-0.0084,0,0.0475,0.0531,0.0589,0.0601,0.063,0.065,0.0661,0.0649,0.0679,0.0645,0.0656,0.0553,0.0513,0.0367,0.0194,0.0178,0.0027,-0.0018,-0.0137,-0.014,-0.0163,-0.0167,-0.0123,-0.0123,-0.0122,-0.0122,-0.0122,0,0.0533,0.058,0.062,0.065,0.0724,0.0714,0.0782,0.0776,0.0789,0.0836,0.073,0.0741,0.0524,0.0408,0.0233,0.0041,0.0054,-0.0122,-0.0162,-0.0133,-0.0132,-0.0136,-0.0137,-0.0125,-0.0125,-0.0124,-0.0124,0,0.058,0.0601,0.0677,0.0728,0.0751,0.0801,0.0877,0.0927,0.0921,0.0981,0.0977,0.0885,0.0736,0.0513,0.0279,0.011,-0.0082,-0.0157,-0.0103,-0.0135,-0.0231,-0.0226,-0.0296,-0.0298,-0.0299,-0.03,-0.0301,0,0.0609,0.0651,0.074,0.0795,0.0822,0.09,0.0958,0.0991,0.1062,0.1077,0.1118,0.0995,0.0932,0.0583,0.0264,-0.0039,-0.0083,-0.0225,-0.0256,-0.0217,-0.0248,-0.0242,-0.0235,-0.0254,-0.0255,-0.0255,-0.0255,0,0.0666,0.0692,0.0756,0.0871,0.0949,0.1055,0.1145,0.1226,0.1266,0.1311,0.1348,0.1297,0.0971,0.0673,0.0249,0.0034,-0.0176,-0.0241,-0.0216,-0.021,-0.0183,-0.0212,-0.0206,-0.0258,-0.0258,-0.0258,-0.0258,-0.0257,0.0705,0.0762,0.0844,0.0956,0.1056,0.1189,0.1286,0.1389,0.1504,0.1577,0.1525,0.1454,0.1107,0.0577,0.0205,-0.0196,-0.0181,-0.0326,-0.0323,-0.0319,-0.0295,-0.0272,-0.0359,-0.0359,-0.0359,-0.0359,-0.036,0,0.0757,0.0824,0.0926,0.106,0.1178,0.1226,0.1398,0.1493,0.1632,0.1691,0.1715,0.1384,0.1046,0.0643,0.006,-0.0288,-0.0321,-0.0408,-0.0363,-0.0357,-0.0353,-0.0329,-0.0403,-0.0404,-0.0405,-0.0406,0,0,0.0784,0.0885,0.0939,0.1133,0.1235,0.14,0.1505,0.1638,0.1725,0.1778,0.1743,0.1671,0.118,0.0758,0.0279,-0.0056,-0.0132,-0.0136,-0.0065,0.005,0.0059,-0.0272,-0.0225,0,0,0,0,0]}],[{"header":{"parameterUnit":"m.s-1","parameterCategory":2,"la1":30.2991,"la2":30.254,"lo1":-89.0895,"lo2":-89.0444,"dy":0.0017,"dx":0.0017,"nx":28,"ny":28,"refTime":"2025-12-23T09:00:00:Z","depth":"4","parameterNumber":2,"parameterNumberName":"U-component_of_CURRENTS"},"data":[0,0,0,0,0,0,0,0,0,0,0,0,0,0,0,0,0,0,0,0,0,0,0,0,0,0,0,0,0,0,0,0,0,0,0,0,0,0,0,0,0,0,0,0,0,0,0,0,0,0,0,0,0,0,0,0,0,0,0.1865,0.1866,0,0.1954,0.1954,0.1955,0.2027,0.2028,0.2029,0.2029,0.2127,0.2128,0.213,0,0,0,0,0,0,0,0,0,0,0,0,0,0.1744,0.1745,0.1865,0.1867,0.1868,0.1953,0.1955,0.1956,0.2027,0.2028,0.2029,0.203,0.2126,0.2128,0.213,0,0,0,0,0,0,0,0,0,0,0,0,0,0.1808,0.1746,0.1865,0.1915,0.1921,0.1953,0.1955,0.1956,0.2026,0.2028,0.2029,0.203,0.2125,0.2128,0.213,0.2118,0,0,0.2138,0.2139,0,0,0,0,0,0,0,0,0.1805,0.1813,0.1907,0.1912,0.1918,0.1982,0.1947,0.2011,0.2026,0.1984,0.2029,0.2031,0.208,0.2086,0.2096,0.2123,0.2127,0.2138,0.214,0.2141,0.2142,0,0,0,0,0,0,0,0.18,0.1809,0.1898,0.1908,0.1915,0.1928,0.1939,0.196,0.2021,0.1988,0.1994,0.2006,0.2083,0.2094,0.2099,0.2129,0.2138,0.2141,0.2142,0.2143,0.228,0.2282,0,0,0,0,0,0,0.1793,0.1805,0.1895,0.1901,0.1866,0.193,0.1942,0.1959,0.2021,0.2033,0.2005,0.2009,0.2089,0.2096,0.2103,0.2205,0.2141,0.2144,0.2145,0.2278,0.2281,0.2283,0,0,0,0,0,0,0.179,0.18,0.1892,0.1856,0.1869,0.1931,0.1949,0.196,0.2013,0.2035,0.2046,0.2053,0.209,0.2099,0.2163,0.2205,0.2145,0.2147,0.2276,0.2279,0.2282,0.2337,0,0,0,0,0,0,0.1786,0.1799,0.1826,0.1856,0.1871,0.1937,0.1948,0.1961,0.2017,0.2025,0.2078,0.2087,0.2092,0.2159,0.2165,0.2207,0.2149,0.2273,0.2277,0.2281,0.2332,0.2341,0.2349,0,0,0,0,0,0.1782,0.1806,0.1826,0.1839,0.1901,0.1939,0.1948,0.1994,0.2019,0.2047,0.209,0.2087,0.2189,0.2163,0.217,0.2214,0.2271,0.2276,0.2281,0.2329,0.234,0.2349,0,0,0,0,0,0,0.1769,0.1817,0.184,0.188,0.192,0.1952,0.1988,0.2015,0.207,0.2092,0.211,0.2121,0.2194,0.2197,0.2168,0.2266,0.2231,0.2237,0.2265,0.2276,0.2284,0.2284,0.2151,0,0,0,0,0,0.1776,0.1813,0.1853,0.1891,0.1914,0.1959,0.1988,0.202,0.2063,0.2091,0.2128,0.2171,0.221,0.2239,0.227,0.232,0.2329,0.2355,0.2363,0.237,0.2377,0.2428,0.2441,0.2299,0.2299,0.2298,0,0,0.1782,0.1815,0.1837,0.1892,0.1929,0.1967,0.1981,0.2038,0.208,0.209,0.2172,0.2204,0.2231,0.2292,0.2325,0.2306,0.2418,0.2376,0.2382,0.2385,0.2434,0.2448,0.246,0.2302,0.2301,0.2301,0,0,0.1796,0.1843,0.1874,0.1911,0.1975,0.2001,0.2026,0.2083,0.2127,0.2194,0.2219,0.2278,0.2337,0.2366,0.2385,0.2458,0.2462,0.2478,0.252,0.257,0.2582,0.2593,0.2627,0.264,0.2481,0.2481,0.2481,0,0.1804,0.1848,0.189,0.1928,0.1966,0.202,0.206,0.2107,0.2181,0.222,0.2233,0.2346,0.2369,0.2441,0.2471,0.2477,0.2504,0.2476,0.258,0.2591,0.2601,0.2633,0.2647,0.2484,0.2484,0.2483,0.2483,0,0.1831,0.188,0.1904,0.1971,0.2016,0.2063,0.2124,0.2186,0.2245,0.2286,0.2387,0.2426,0.2492,0.2512,0.2516,0.2603,0.26,0.2584,0.255,0.2618,0.2648,0.2662,0.2489,0.2487,0.2486,0.2486,0,0,0.1807,0.1903,0.1916,0.1955,0.2046,0.2079,0.2164,0.2243,0.2309,0.2387,0.2469,0.2542,0.2576,0.2601,0.2623,0.2667,0.2757,0.2663,0.2664,0.2689,0.2872,0.2698,0.2696,0.2767,0.277,0.2772,0.2866,0,0.1819,0.1886,0.1939,0.2014,0.2052,0.2133,0.2204,0.2288,0.2367,0.246,0.2526,0.2613,0.2607,0.2658,0.2702,0.2751,0.2795,0.2733,0.2809,0.2811,0.2641,0.2706,0.278,0.2875,0.2878,0.288,0.2882,0,0.182,0.1869,0.1939,0.2039,0.2067,0.2126,0.2252,0.2322,0.2455,0.2525,0.2622,0.2679,0.2778,0.2757,0.2869,0.2837,0.2863,0.2886,0.2889,0.2715,0.2661,0.2794,0.2906,0.2904,0.2902,0.29,0.2899,0,0.1766,0.1866,0.1924,0.1959,0.208,0.2141,0.2216,0.2346,0.2425,0.2579,0.2658,0.2768,0.285,0.2904,0.2959,0.2933,0.3067,0.3029,0.2896,0.2884,0.2987,0.2975,0.3103,0.3103,0.3103,0.3103,0.3102,0,0.1737,0.1786,0.191,0.194,0.2023,0.2121,0.2226,0.2323,0.2474,0.256,0.2691,0.2771,0.2896,0.2981,0.3001,0.2989,0.3105,0.2913,0.2899,0.3009,0.2998,0.2996,0.2983,0.3106,0.3105,0.3105,0.3104,0,0.1661,0.1744,0.1815,0.195,0.1999,0.206,0.2225,0.2294,0.2456,0.2578,0.2639,0.2816,0.2916,0.3012,0.3112,0.303,0.3044,0.3011,0.3139,0.3129,0.2816,0.2805,0.2857,0.2852,0.2847,0.2844,0.284,0,0.1623,0.1655,0.1803,0.1848,0.1915,0.2023,0.2093,0.2268,0.234,0.2571,0.261,0.2787,0.2877,0.2883,0.299,0.3023,0.2989,0.297,0.2867,0.2811,0.2793,0.2789,0.2784,0.2833,0.2832,0.2831,0.283,0,0.1546,0.1618,0.1676,0.1771,0.1852,0.1927,0.204,0.2083,0.2272,0.2444,0.2525,0.259,0.2701,0.277,0.2829,0.284,0.2962,0.2922,0.293,0.2833,0.2783,0.2769,0.2769,0.2814,0.2817,0.2818,0.2819,0,0.1492,0.1511,0.1602,0.1669,0.1764,0.1797,0.1874,0.1955,0.2052,0.2298,0.2316,0.2502,0.2666,0.2677,0.2726,0.2734,0.2682,0.2577,0.2602,0.262,0.2499,0.2396,0.2305,0,0,0,0,0,0.1423,0.1432,0.1489,0.1551,0.1639,0.1691,0.1822,0.1902,0.2082,0.2079,0.2195,0.2283,0.2366,0.2466,0.2426,0.2625,0.2694,0.2567,0.2585,0.2728,0.2746,0.2625,0,0,0,0,0,0,0.1375,0.1425,0.1444,0.1439,0.1455,0.1531,0.1603,0.1724,0.1734,0.1928,0.1989,0.2138,0.2259,0.2365,0.238,0.241,0.2373,0.2687,0.2681,0.2718,0.2734,0.2749,0.263,0,0,0,0,0]},{"header":{"parameterUnit":"m.s-1","parameterCategory":2,"la1":30.2991,"la2":30.254,"lo1":-89.0895,"lo2":-89.0444,"dy":0.0017,"dx":0.0017,"nx":28,"ny":28,"refTime":"2025-12-23T09:00:00:Z","depth":"4","parameterNumber":3,"parameterNumberName":"V-component_of_CURRENTS"},"data":[0,0,0,0,0,0,0,0,0,0,0,0,0,0,0,0,0,0,0,0,0,0,0,0,0,0,0,0,0,0,0,0,0,0,0,0,0,0,0,0,0,0,0,0,0,0,0,0,0,0,0,0,0,0,0,0,0,0,0.0107,0.0106,0,0.006,0.0059,0.0059,0.0023,0.0022,0.0022,0.0022,-0.0046,-0.0048,-0.0049,0,0,0,0,0,0,0,0,0,0,0,0,0,0.0131,0.0131,0.0107,0.0106,0.0106,0.006,0.0059,0.0058,0.0023,0.0022,0.0022,0.0022,-0.0046,-0.0048,-0.0049,0,0,0,0,0,0,0,0,0,0,0,0,0,0.0105,0.0131,0.0107,0.0083,0.008,0.006,0.0059,0.0058,0.0023,0.0022,0.0022,0.0021,-0.0045,-0.0047,-0.005,-0.0056,0,0,-0.0057,-0.0058,0,0,0,0,0,0,0,0,0.0107,0.0105,0.0087,0.0085,0.0082,0.0047,0.0043,0.0019,0.0023,0.0044,0.0022,0.0021,-0.0016,-0.0021,-0.003,-0.0059,-0.0062,-0.0057,-0.0058,-0.0059,-0.006,0,0,0,0,0,0,0,0.0109,0.0106,0.0087,0.0086,0.0083,0.0063,0.0059,0.0038,0.0016,0.0042,0.0039,0.0035,-0.0018,-0.0027,-0.0031,-0.0063,-0.0057,-0.0059,-0.0061,-0.0061,-0.0102,-0.0102,0,0,0,0,0,0,0.0118,0.0108,0.0089,0.0086,0.0094,0.0063,0.0058,0.0058,0.0016,0.001,0.0036,0.0034,-0.0023,-0.0029,-0.0034,-0.003,-0.0059,-0.0062,-0.0063,-0.0103,-0.0102,-0.0102,0,0,0,0,0,0,0.0119,0.0117,0.0091,0.0096,0.0092,0.0063,0.0063,0.0057,0.0051,0.0012,0.0005,0.0035,-0.0024,-0.0031,-0.0045,-0.0033,-0.0063,-0.0065,-0.0103,-0.0103,-0.0102,-0.003,0,0,0,0,0,0,0.012,0.0118,0.0123,0.0097,0.0092,0.0088,0.0063,0.0057,0.0049,0.0046,0.0009,0.0002,-0.0024,-0.0041,-0.0047,-0.0037,-0.0067,-0.0103,-0.0103,-0.0102,-0.0033,-0.0027,-0.0022,0,0,0,0,0,0.0121,0.0135,0.0124,0.0122,0.0099,0.0089,0.0085,0.0062,0.0049,0.0053,0.0028,0.0003,-0.0042,-0.0042,-0.005,-0.004,-0.0104,-0.0103,-0.0102,-0.0035,-0.0028,-0.0022,0,0,0,0,0,0,0.0149,0.0132,0.0119,0.0127,0.0112,0.0083,0.0086,0.0068,0.0051,0.0048,0.001,0.0001,-0.0008,-0.0034,-0.0034,-0.0051,-0.0078,-0.0079,-0.0024,-0.0018,-0.0013,0.0001,-0.0069,0,0,0,0,0,0.0157,0.0162,0.014,0.0146,0.0142,0.0114,0.0108,0.0093,0.0072,0.0064,0.0037,0.0009,-0.0011,-0.0022,-0.0046,-0.0052,-0.0087,-0.0052,-0.0047,-0.0042,-0.0036,-0.0079,-0.0077,-0.01,-0.01,-0.01,0,0,0.0169,0.016,0.0163,0.0152,0.0138,0.0144,0.0109,0.0106,0.0111,0.006,0.0059,0.0027,-0.0009,-0.0016,-0.0023,-0.0036,-0.0054,-0.0041,-0.0037,-0.0033,-0.0078,-0.0076,-0.0074,-0.0099,-0.0099,-0.0099,0,0,0.0199,0.0189,0.0203,0.0197,0.0184,0.0169,0.0172,0.0148,0.0138,0.013,0.0095,0.0073,0.0042,0.0019,0.0004,0.0023,-0.0025,0.0013,0.0053,0.0011,0.0013,0.0014,-0.0025,-0.0028,0.0017,0.0017,0.0017,0,0.0213,0.0228,0.0206,0.0218,0.0222,0.0186,0.0206,0.0192,0.0165,0.0161,0.014,0.0091,0.006,0.005,0.0056,0.0036,0.0003,0.0035,0.0019,0.0019,0.0019,-0.0021,-0.0026,0.002,0.002,0.002,0.0019,0,0.025,0.0265,0.0275,0.028,0.0282,0.0292,0.0273,0.0269,0.0249,0.0229,0.0211,0.0163,0.0135,0.0119,0.0094,0.0081,0.0055,0.0031,0.0006,0.0026,-0.0018,-0.0024,0.0025,0.0024,0.0023,0.0022,0,0,0.0277,0.0298,0.0302,0.0322,0.0318,0.0326,0.0335,0.0334,0.0344,0.0302,0.0305,0.026,0.0225,0.0205,0.0164,0.0127,0.0095,0.0084,0.008,0.0052,0.0003,-0.0012,-0.0021,0.0067,0.0066,0.0066,-0.0026,0,0.0314,0.0359,0.0357,0.0403,0.0427,0.0408,0.0421,0.0413,0.0396,0.0388,0.0329,0.0315,0.0261,0.025,0.0203,0.0123,0.0083,0.0122,-0.0017,-0.0021,-0.0032,-0.0027,0.0064,-0.003,-0.0032,-0.0033,-0.0034,0,0.0348,0.0377,0.0431,0.0471,0.048,0.0501,0.0522,0.053,0.0505,0.049,0.0457,0.0407,0.0353,0.0302,0.0172,0.0199,0.0111,0.0041,0.0035,-0.0008,-0.0047,-0.0057,-0.0045,-0.0044,-0.0043,-0.0042,-0.0042,0,0.0379,0.043,0.0479,0.0492,0.0526,0.0549,0.0565,0.056,0.0584,0.0557,0.0563,0.048,0.0444,0.0324,0.0179,0.0175,0.0028,0.0001,-0.0098,-0.01,-0.0091,-0.0091,-0.0092,-0.0092,-0.0092,-0.0092,-0.0091,0,0.0414,0.0455,0.0501,0.0528,0.0593,0.0595,0.0655,0.0654,0.0666,0.0697,0.062,0.0614,0.0447,0.0343,0.0203,0.0037,0.0042,-0.0089,-0.0124,-0.0058,-0.0054,-0.0095,-0.0094,-0.0095,-0.0094,-0.0094,-0.0093,0,0.0436,0.0463,0.0528,0.0583,0.061,0.0654,0.0729,0.0768,0.0767,0.0804,0.0802,0.0714,0.0573,0.0399,0.0198,0.0076,-0.0086,-0.0147,-0.0058,-0.0086,-0.0193,-0.0187,-0.0264,-0.0265,-0.0266,-0.0267,-0.0268,0,0.0449,0.0484,0.0573,0.0621,0.0652,0.0726,0.0778,0.0814,0.086,0.0863,0.0879,0.0767,0.0681,0.0396,0.0199,-0.0069,-0.0113,-0.02,-0.0204,-0.0184,-0.021,-0.0203,-0.0196,-0.0269,-0.027,-0.027,-0.027,0,0.0475,0.0507,0.0561,0.0662,0.0734,0.0824,0.09,0.0944,0.0978,0.0986,0.0946,0.0798,0.0635,0.0402,0.0193,-0.0002,-0.0145,-0.0212,-0.0212,-0.0216,-0.0192,-0.0215,-0.0207,-0.0274,-0.0273,-0.0273,-0.0273,0,0.0492,0.0533,0.0606,0.0696,0.0793,0.0884,0.0929,0.098,0.1024,0.1023,0.1004,0.0829,0.0728,0.0436,0.0244,0.005,-0.0007,-0.0078,-0.0085,-0.0084,-0.0011,0.0047,0.0012,0,0,0,0,0,0.0504,0.0551,0.0635,0.0734,0.0832,0.0894,0.0993,0.1029,0.1066,0.105,0.1033,0.0881,0.0594,0.047,0.0275,0.0204,-0.0052,-0.0035,-0.014,-0.0295,-0.0291,-0.0238,0,0,0,0,0,0,0.0509,0.0584,0.0629,0.0748,0.0822,0.0936,0.1003,0.1034,0.1027,0.1031,0.0887,0.0819,0.0545,0.0707,0.0267,0.0208,0.011,-0.0164,-0.0169,-0.0298,-0.0294,-0.029,-0.0235,0,0,0,0,0]}]]